Location: Unspecified
(0.0000°N, 0.0000°E)
Time: 23:06:33
(UTC+02:00)

CZ-4B DEB - Visible Passes

Search period start: 23 April 2014 00:00
Search period end: 03 May 2014 00:00
Orbit: 528 x 546 km, 97.5° (Epoch: 23 April)

Date Brightness Start Highest point End Pass type
(mag) Time Alt. Az. Time Alt. Az. Time Alt. Az.
23 Apr 3.6 20:54:08 10° S 20:57:59 66° W 21:01:48 10° NNW visible
24 Apr 3.2 20:45:54 10° SSE 20:49:48 90° E 20:53:38 10° N visible
25 Apr 3.2 20:37:43 10° SSE 20:41:34 65° E 20:45:22 10° N visible
26 Apr 3.5 20:29:34 10° SSE 20:33:18 46° E 20:36:59 10° N visible
27 Apr 3.9 20:21:29 10° SE 20:25:00 34° E 20:28:29 10° NNE visible
29 Apr 6.3 21:40:41 10° SW 21:42:28 13° WSW 21:44:14 10° WNW visible
30 Apr 6.1 21:31:29 10° SW 21:34:03 17° WSW 21:36:37 10° WNW visible
01 May 5.6 21:22:32 10° SSW 21:25:36 23° WSW 21:28:40 10° NW visible
02 May 5.1 21:13:41 10° SSW 21:17:07 31° WSW 21:20:31 10° NW visible
